AirNav   Pilot Hours Calculator
 
 994 users online  

55G Arnold Field Airport
Croswell, Michigan, USA

GOING TO CROSWELL?


FAA INFORMATION EFFECTIVE 28 FEBRUARY 2019

Location

FAA Identifier: 55G
Lat/Long: 43-17-52.0800N / 082-36-28.3100W
43-17.868000N / 082-36.471833W
43.2978000 / -82.6078639
(estimated)
Elevation: 784 ft. / 239 m (estimated)
Variation: 07W (1985)
From city: 2 miles NE of CROSWELL, MI
Time zone: UTC -5 (UTC -4 during Daylight Saving Time)
Zip code: 48422

Airport Operations

Airport use: Open to the public
Activation date: 05/1968
Control tower: no
ARTCC: CLEVELAND CENTER
FSS: LANSING FLIGHT SERVICE STATION
NOTAMs facility: LAN (NOTAM-D service available)
Attendance: UNATNDD
Wind indicator: yes
Segmented circle: no

Airport Communications

CTAF/UNICOM: 122.8

Airport Services

Parking: hangars and tiedowns
Bottled oxygen: NONE
Bulk oxygen: NONE

Runway Information

Runway 18/36

Dimensions: 2570 x 140 ft. / 783 x 43 m
Surface: turf, in good condition
Runway edge markings: 18/36 MKD WITH 12 INCH YELLOW CONES; DSPLCD THLDS MKD WITH THREE 12 INCH YELLOW CONES EACH SIDE.
RUNWAY 18  RUNWAY 36
Latitude: 43-18.080000N43-17.657500N
Longitude: 082-36.486667W082-36.457000W
Elevation: 784.0 ft.780.0 ft.
Traffic pattern: leftleft
Runway heading: 184 magnetic, 177 true004 magnetic, 357 true
Displaced threshold: 600 ft.570 ft.
Runway end identifier lights: nono
Obstructions: 70 ft. trees, 1250 ft. from runway, 17:1 slope to clear
APCH RATIO 25:1 AT DSPLCD THLD.
29 ft. pline, lighted, 11 ft. from runway, 97 ft. left of centerline
APCH RATIO AT DSPLCD THLD 20:1; DSPLCD THLD 5 FT ABOVE END OF RY.

Airport Ownership and Management from official FAA records

Ownership: Privately-owned
Owner: ROBERT PERRY
4343 CROSWELL RD
CROSWELL, MI 48422
Phone 810-679-2487
Manager: BART PERRY
4343 CROSWELL ROAD
CROSWELL, MI 48422
Phone (810) 304-1018

Airport Operational Statistics

Aircraft based on the field: 6
Single engine airplanes: 4
Ultralights: 2
    
Aircraft operations: 200/year *
50% transient general aviation
50% local general aviation
* for 12-month period ending 31 December 2015

Additional Remarks

ARPT CLSD NOV-MAR. WINTER OPNS SKIS ONLY.

Instrument Procedures

There are no published instrument procedures at 55G.

Some nearby airports with instrument procedures:

77G - Marlette Airport (21 nm W)
KPHN - St Clair County International Airport (23 nm S)
D95 - Dupont-Lapeer Airport (32 nm SW)
KBAX - Huron County Memorial Airport (33 nm NW)
D98 - Romeo State Airport (34 nm SW)
 
Loc | Ops | Rwys | IFR | FBO | Links
Com | Nav | Svcs | Stats | Notes
Area around 55G (Arnold Field Airport)
 
Road maps at: MapQuest Bing Google
 
Aerial photo
No photo
 
Sectional chart

 
Airport distance calculator
Flying to Arnold Field Airport? Find the distance to fly.

From to 55G

Sunrise and sunset
Times for 24-Mar-2019
 Local
(UTC-4)
 Zulu
(UTC)
Morning civil twilight06:5910:59
Sunrise07:2811:28
Sunset19:4623:46
Evening civil twilight20:1500:15

Current date and time
Zulu (UTC)  24-Mar-2019 15:50:13
Local (UTC-4)  24-Mar-2019 11:50:13
 
METAR
CYZR 
22nm SE 
241500Z AUTO 21007KT 9SM SCT140 07/M02 A3012 RMK SLP206
KPHN 
23nm S 
241535Z AUTO 24006KT 10SM CLR 09/M05 A3014 RMK AO2
KD95 
32nm SW 
241535Z AUTO 26009KT 10SM CLR 09/M02 A3011 RMK AO2 T00911025
KBAX 
33nm NW 
241536Z AUTO 26007KT 10SM CLR 06/M02 A3009 RMK AO2 T00551018
KCFS 
38nm W 
241535Z AUTO 24006KT 10SM CLR 07/M03 A3009 RMK AO2 T00701029
KMTC 
42nm S 
241455Z 24006KT 10SM BKN120 OVC200 08/M03 A3013 RMK AO2A SLP213 T00831026 58002 $
KP58 
44nm N 
241451Z AUTO 25008G15KT 05/M03 A3006 RMK AO1 SLP186 T00501028 57004
TAF
CYZR 
22nm SE 
241339Z 2414/2502 20007KT P6SM SKC BECMG 2414/2416 21012KT FM241600 23012KT P6SM OVC150 FM250000 01012KT P6SM SCT025 BKN240 TEMPO 2500/2502 OVC025 BECMG 2500/2502 01012G22KT RMK FCST BASED ON AUTO OBS. NXT FCST BY 242000Z
NOTAMs
Click for the latest NOTAMs
NOTAMs are issued by the DoD/FAA and will open in a separate window not controlled by AirNav.

 

 
 

Would you like to see your business listed on this page?

 If your business provides an interesting product or service to pilots, flight crews, aircraft, or users of the Arnold Field Airport, you should consider listing it here.  To start the listing process, click on the button below
 
Add a business
 

Other Pages about Arnold Field Airport

Page from the Michigan Airport Directory (PDF)
 
Update a link
 
Copyright © AirNav, LLC. All rights reserved. Privacy Policy  Contact